Location: Palo Alto
(37.4420°N, 122.1420°W)
Time: 04:51:45
(UTC-08:00)

ARGOS - Visible Passes

Search period start: 22 February 2018 00:00
Search period end: 04 March 2018 00:00
Orbit: 820 x 835 km, 98.6° (Epoch: 21 February)

Date Brightness Start Highest point End Pass type
(mag) Time Alt. Az. Time Alt. Az. Time Alt. Az.
22 Feb 5.5 20:10:22 10° NNE 20:10:22 10° NNE 20:10:29 10° NNE visible
24 Feb 5.7 21:13:59 12° NNW 21:13:59 12° NNW 21:14:24 10° NNW visible
25 Feb 5.5 20:55:04 14° N 20:55:04 14° N 20:55:47 10° N visible
26 Feb 5.3 20:36:08 15° N 20:36:08 15° N 20:37:00 10° N visible
27 Feb 5.3 20:17:12 14° NNE 20:17:12 14° NNE 20:18:05 10° N visible
28 Feb 5.3 19:58:16 12° NNE 19:58:16 12° NNE 19:58:55 10° NNE visible
28 Feb 5.9 21:39:46 12° NNW 21:39:46 12° NNW 21:40:14 10° NNW visible
01 Mar 5.6 21:20:50 15° NNW 21:20:50 15° NNW 21:21:47 10° NNW visible
02 Mar 5.3 21:01:54 18° N 21:01:54 18° N 21:03:12 10° N visible
03 Mar 5.1 20:42:59 19° N 20:42:59 19° N 20:44:29 10° N visible
